{"data":{"norad_id":58810,"intl_designator":"2023-185T","name":"NANOFF A","alt_names":[],"object_type":"PAYLOAD","status":"ACTIVE","operator":null,"country":"GER","launch_date":"2023-12-01","launch_site_code":"AFWTR","launch_vehicle":null,"mission":null,"orbit_class":"UNKNOWN","rcs_meters":null,"size_class":null,"mass_kg":null,"dimensions":null,"purposes":[],"wikipedia_slug":null,"has_3d_model":false,"image_url":null,"decayed_at":null,"tle_current":{"epoch":"2026-05-25T03:53:56.779008Z","epoch_age_seconds":64517,"freshness":"FRESH","line1":"1 58810U 23185T   26145.16246272  .00003017  00000+0  17874-3 0  9999","line2":"2 58810  97.5269 212.9350 0010860  36.1774 324.0189 15.12109390129568","mean_motion":15.1210939,"eccentricity":0.001086,"inclination_deg":97.5269,"raan_deg":212.935,"arg_perigee_deg":36.1774,"mean_anomaly_deg":324.0189,"bstar":0.00017874,"rev_number":12956,"period_min":95.231205461928,"perigee_km":522.2661965754,"apogee_km":537.27016662984,"semimajor_km":6907.9051816026,"source":"CELESTRAK","updated_at":"2026-05-25T13:38:01.002486Z"}}}